When you browse on this site, cookies collect data to enhance your experience and personalize the content and advertising you see.
Visit our Privacy Policy to learn more. By continuing to use the site, you agree to this use of cookies and data.

Hourly Weather Mostar

Today, 7 August, Friday

Time Temperature Precipitation Wind Pressure Humidity
00:00 +22°C° 0 mm 3 mps 754 mmHg 70%
01:00 +21°C° 0 mm 3 mps 754 mmHg 73%
02:00 +21°C° 0 mm 3 mps 754 mmHg 75%
03:00 +21°C° 0 mm 3 mps 753 mmHg 77%
04:00 +20°C° 0 mm 3 mps 753 mmHg 78%
05:00 +21°C° 0 mm 2 mps 753 mmHg 76%
06:00 +23°C° 0 mm 2 mps 753 mmHg 74%
07:00 +24°C° 0 mm 2 mps 754 mmHg 71%
08:00 +25°C° 0 mm 2 mps 754 mmHg 66%
09:00 +27°C° 0 mm 2 mps 754 mmHg 61%
10:00 +28°C° 0 mm 2 mps 754 mmHg 57%
11:00 +29°C° 0 mm 2 mps 754 mmHg 52%
12:00 +31°C° 0 mm 3 mps 754 mmHg 47%
13:00 +33°C° 0 mm 3 mps 754 mmHg 42%
14:00 +31°C° 0.1 mm 3 mps 753 mmHg 44%
15:00 +31°C° 0.1 mm 3 mps 753 mmHg 47%
16:00 +32°C° 0.1 mm 4 mps 753 mmHg 50%
17:00 +29°C° 0 mm 3 mps 753 mmHg 56%
18:00 +27°C° 0 mm 3 mps 753 mmHg 61%
19:00 +26°C° 0 mm 2 mps 753 mmHg 67%
20:00 +25°C° 0 mm 3 mps 754 mmHg 68%
21:00 +24°C° 0 mm 3 mps 754 mmHg 70%
22:00 +22°C° 0 mm 3 mps 754 mmHg 72%
23:00 +22°C° 0 mm 3 mps 754 mmHg 73%

Tomorrow, 8 August, Saturday

Time Temperature Precipitation Wind Pressure Humidity
00:00 +22°C° 0 mm 3 mps 754 mmHg 73%
01:00 +21°C° 0 mm 3 mps 754 mmHg 74%
02:00 +21°C° 0 mm 3 mps 753 mmHg 74%
03:00 +21°C° 0 mm 3 mps 753 mmHg 74%
04:00 +21°C° 0 mm 3 mps 753 mmHg 74%
05:00 +22°C° 0 mm 3 mps 753 mmHg 72%
06:00 +24°C° 0 mm 3 mps 753 mmHg 71%
07:00 +25°C° 0 mm 3 mps 754 mmHg 69%
08:00 +27°C° 0 mm 3 mps 754 mmHg 63%
09:00 +28°C° 0 mm 3 mps 754 mmHg 57%
10:00 +30°C° 0 mm 4 mps 754 mmHg 51%
11:00 +32°C° 0 mm 4 mps 753 mmHg 49%
12:00 +33°C° 0 mm 4 mps 753 mmHg 46%
13:00 +34°C° 0 mm 4 mps 753 mmHg 43%
14:00 +34°C° 0 mm 4 mps 753 mmHg 44%
15:00 +33°C° 0 mm 4 mps 753 mmHg 46%
16:00 +33°C° 0 mm 4 mps 753 mmHg 47%
17:00 +30°C° 0 mm 4 mps 753 mmHg 53%
18:00 +28°C° 0 mm 4 mps 753 mmHg 59%
19:00 +27°C° 0 mm 4 mps 753 mmHg 65%
20:00 +26°C° 0 mm 3 mps 753 mmHg 66%
21:00 +25°C° 0 mm 3 mps 754 mmHg 67%
22:00 +25°C° 0 mm 3 mps 754 mmHg 67%
23:00 +24°C° 0 mm 3 mps 753 mmHg 69%

Day after tomorrow, 9 August, Sunday

Time Temperature Precipitation Wind Pressure Humidity
00:00 +24°C° 0 mm 3 mps 753 mmHg 70%
01:00 +22°C° 0 mm 3 mps 753 mmHg 72%
02:00 +22°C° 0 mm 3 mps 753 mmHg 72%
03:00 +22°C° 0 mm 3 mps 753 mmHg 72%
04:00 +22°C° 0 mm 3 mps 753 mmHg 72%
05:00 +24°C° 0 mm 3 mps 753 mmHg 70%
06:00 +25°C° 0 mm 3 mps 753 mmHg 67%
07:00 +26°C° 0 mm 3 mps 753 mmHg 65%
08:00 +29°C° 0 mm 3 mps 753 mmHg 58%
09:00 +31°C° 0 mm 3 mps 753 mmHg 50%
10:00 +34°C° 0 mm 3 mps 753 mmHg 43%
11:00 +35°C° 0 mm 3 mps 753 mmHg 41%
12:00 +35°C° 0 mm 3 mps 753 mmHg 39%
13:00 +36°C° 0 mm 3 mps 753 mmHg 37%
14:00 +36°C° 0 mm 3 mps 753 mmHg 39%
15:00 +35°C° 0 mm 3 mps 753 mmHg 40%
16:00 +35°C° 0 mm 3 mps 752 mmHg 42%
17:00 +32°C° 0 mm 2 mps 752 mmHg 48%
18:00 +30°C° 0 mm 2 mps 753 mmHg 54%
19:00 +28°C° 0 mm 2 mps 753 mmHg 60%
20:00 +27°C° 0 mm 2 mps 753 mmHg 62%
21:00 +26°C° 0 mm 2 mps 753 mmHg 64%
22:00 +25°C° 0 mm 3 mps 753 mmHg 66%
23:00 +24°C° 0 mm 3 mps 753 mmHg 67%

10 August, Monday

Time Temperature Precipitation Wind Pressure Humidity
00:00 +24°C° 0 mm 2 mps 753 mmHg 67%
01:00 +24°C° 0 mm 2 mps 753 mmHg 68%
02:00 +23°C° 0 mm 2 mps 753 mmHg 69%
03:00 +23°C° 0 mm 2 mps 753 mmHg 71%
04:00 +23°C° 0 mm 2 mps 753 mmHg 72%
05:00 +24°C° 0 mm 2 mps 753 mmHg 70%
06:00 +25°C° 0 mm 2 mps 753 mmHg 68%
07:00 +26°C° 0 mm 2 mps 753 mmHg 65%
08:00 +28°C° 0 mm 1 mps 753 mmHg 58%
09:00 +31°C° 0 mm 1 mps 753 mmHg 52%
10:00 +33°C° 0 mm 1 mps 754 mmHg 45%
11:00 +33°C° 0 mm 1 mps 753 mmHg 42%
12:00 +34°C° 0 mm 1 mps 753 mmHg 40%
13:00 +35°C° 0 mm 1 mps 753 mmHg 37%
14:00 +35°C° 0 mm 2 mps 753 mmHg 40%
15:00 +34°C° 0 mm 2 mps 753 mmHg 43%
16:00 +32°C° 0 mm 2 mps 753 mmHg 46%
17:00 +30°C° 0 mm 2 mps 753 mmHg 53%
18:00 +29°C° 0 mm 1 mps 753 mmHg 59%
19:00 +27°C° 0 mm 1 mps 753 mmHg 65%
20:00 +26°C° 0 mm 1 mps 753 mmHg 67%
21:00 +26°C° 0 mm 1 mps 754 mmHg 68%
22:00 +25°C° 0 mm 1 mps 754 mmHg 69%
23:00 +25°C° 0 mm 1 mps 754 mmHg 70%

11 August, Tuesday

Time Temperature Precipitation Wind Pressure Humidity
00:00 +25°C° 0 mm 1 mps 754 mmHg 71%
01:00 +24°C° 0 mm 1 mps 754 mmHg 72%
02:00 +24°C° 0 mm 1 mps 754 mmHg 72%
03:00 +24°C° 0 mm 1 mps 754 mmHg 72%
04:00 +24°C° 0 mm 1 mps 754 mmHg 72%
05:00 +25°C° 0 mm 1 mps 754 mmHg 68%
06:00 +26°C° 0 mm 1 mps 754 mmHg 65%
07:00 +27°C° 0 mm 1 mps 754 mmHg 62%
08:00 +29°C° 0.1 mm 1 mps 754 mmHg 57%
09:00 +31°C° 0.1 mm 1 mps 754 mmHg 51%
10:00 +33°C° 0.1 mm 1 mps 754 mmHg 46%
11:00 +34°C° 0.1 mm 1 mps 754 mmHg 45%
12:00 +35°C° 0.1 mm 2 mps 754 mmHg 44%
13:00 +35°C° 0.1 mm 2 mps 754 mmHg 43%
14:00 +34°C° 0.2 mm 2 mps 753 mmHg 46%
15:00 +32°C° 0.2 mm 2 mps 753 mmHg 49%
16:00 +32°C° 0.2 mm 2 mps 753 mmHg 52%
17:00 +30°C° 0.3 mm 1 mps 753 mmHg 59%
18:00 +28°C° 0.3 mm 1 mps 753 mmHg 65%
19:00 +27°C° 0.3 mm 1 mps 753 mmHg 72%
20:00 +26°C° 0.1 mm 1 mps 753 mmHg 73%
21:00 +26°C° 0.1 mm 1 mps 753 mmHg 74%
22:00 +25°C° 0.1 mm 1 mps 754 mmHg 75%
23:00 +25°C° 0.1 mm 1 mps 753 mmHg 76%

12 August, Wednesday

Time Temperature Precipitation Wind Pressure Humidity
00:00 +24°C° 0.1 mm 1 mps 753 mmHg 76%
01:00 +24°C° 0.1 mm 1 mps 753 mmHg 77%
02:00 +24°C° 0 mm 1 mps 753 mmHg 77%
03:00 +24°C° 0 mm 1 mps 753 mmHg 76%
04:00 +23°C° 0 mm 1 mps 753 mmHg 76%
05:00 +24°C° 0 mm 1 mps 753 mmHg 73%
06:00 +26°C° 0 mm 1 mps 753 mmHg 70%
07:00 +27°C° 0 mm 1 mps 753 mmHg 67%
08:00 +29°C° 0 mm 1 mps 753 mmHg 59%
09:00 +31°C° 0 mm 1 mps 753 mmHg 52%
10:00 +33°C° 0 mm 1 mps 753 mmHg 45%
11:00 +34°C° 0 mm 1 mps 753 mmHg 43%
12:00 +34°C° 0 mm 1 mps 752 mmHg 41%
13:00 +36°C° 0 mm 2 mps 752 mmHg 39%
14:00 +35°C° 0 mm 2 mps 752 mmHg 41%
15:00 +35°C° 0 mm 2 mps 752 mmHg 43%
16:00 +34°C° 0 mm 2 mps 752 mmHg 45%
17:00 +31°C° 0 mm 2 mps 752 mmHg 52%
18:00 +29°C° 0 mm 1 mps 752 mmHg 59%
19:00 +27°C° 0 mm 1 mps 752 mmHg 66%
20:00 +27°C° 0.2 mm 1 mps 752 mmHg 69%
21:00 +26°C° 0.2 mm 1 mps 752 mmHg 72%
22:00 +25°C° 0.2 mm 1 mps 753 mmHg 75%
23:00 +25°C° 0 mm 2 mps 752 mmHg 75%
Show more